Content
SEND FEEDBACK

Daily
Averages
Monthly
Summary
United States of America

CAPE MAY, NEW JERSEY


Home > North America > United States > New Jersey
Elevation: 22 feet     Latitude: 39 00N     Longitude: 074 54W

WEATHER
 
SELECT A DAY
Number of Records: 44,187;   Date Range: 9/1/12 - 9/3/14
 
SHARE

PRINT THIS DATA

[ ← Previous Day ]
WEATHER ALMANAC - JANUARY 31, 2013
[ Next Day → ]
[ °C ]   °F
Weather ElementAverageHighLow
Temperature17.5 °F57.2 °F (4:35 am) (12:35 am)
Dewpoint10.8 °F53.6 °F (4:35 am) (7:00 pm)
Humidity54.2 %94 % (5:15 am)38 % (11:15 pm)
Barometer29.57 in29.92 in (11:55 pm)29.23 in (3:15 am)
Wind Speed19.1 mph36.8 mph (3:15 am)
Wind Gust50.6 mph (3:35 am)
Weather ElementAverage
Visibility9.1 mi
Wind DirectionWSW (259.9 °)

Weather ElementTotal
Precipitation0.50 in
Heating Degree Days36.4 (Base 65)
Averaged from 71 records on January 31, 2013
WEATHER CONDITIONS BREAKOUT
WIND DIRECTION BREAKOUT
WEATHER BY HOUR - JANUARY 31, 2013
[ °C ]   °F
Local TimeTemperatureDewpointHumidityBarometerVisibilityWind DirectionWind SpeedGust SpeedPrecipitationEventsConditions
12:35 AM0.0 °F0.0 °F29.42 in7.0 miSouth (180°)26.5 mph43.7 mphOvercast
12:55 AM0.0 °F0.0 °F29.38 in8.0 miSouth (180°)26.5 mph43.7 mphOvercast
1:15 AM0.0 °F0.0 °F29.36 in8.0 miSouth (170°)34.5 mph48.3 mphOvercast
1:35 AM0.0 °F0.0 °F29.32 in6.0 miSouth (180°)31.1 mph46.0 mphOvercast
1:55 AM0.0 °F0.0 °F29.30 in5.0 miSouth (180°)31.1 mph42.6 mphOvercast
2:15 AM0.0 °F0.0 °F29.27 in5.0 miSouth (180°)31.1 mph40.3 mphOvercast
2:35 AM0.0 °F0.0 °F29.26 in5.0 miSouth (180°)32.2 mph41.4 mphOvercast
2:55 AM0.0 °F0.0 °F29.24 in5.0 miSouth (180°)24.2 mph33.4 mphOvercast
3:15 AM0.0 °F0.0 °F29.23 in3.0 miSouth (180°)36.8 mph47.2 mph0.01 inOvercast
3:35 AM0.0 °F0.0 °F29.23 in3.0 miSouth (180°)34.5 mph50.6 mph0.02 inOvercast
3:55 AM0.0 °F0.0 °F29.23 in5.0 miSouth (190°)32.2 mph42.6 mph0.02 inMostly Cloudy
4:15 AM0.0 °F0.0 °F29.26 in3.0 miSW (230°)18.4 mph29.9 mph0.11 inOvercast
4:35 AM57.2 °F53.6 °F88 %29.24 in5.0 miWSW (240°)10.4 mph0.15 inOvercast
4:55 AM0.0 °F0.0 °F29.24 in7.0 miWSW (240°)13.8 mph23.0 mph0.17 inMostly Cloudy
5:15 AM55.4 °F53.6 °F94 %29.25 in10.0 miSSW (210°)12.7 mphOvercast
5:35 AM55.4 °F53.6 °F94 %29.23 in10.0 miSSW (210°)11.5 mph0.01 inOvercast
5:55 AM55.4 °F53.6 °F94 %29.25 in10.0 miSW (220°)20.7 mph29.9 mph0.01 inOvercast
6:15 AM55.4 °F48.2 °F77 %29.27 in10.0 miSW (230°)19.6 mph34.5 mphOvercast
6:35 AM53.6 °F48.2 °F82 %29.29 in10.0 miWSW (240°)18.4 mph27.6 mphOvercast
6:55 AM0.0 °F0.0 °F29.34 in10.0 miWest (280°)19.6 mph25.3 mphOvercast
7:15 AM48.2 °F35.6 °F62 %29.37 in10.0 miWNW (290°)18.4 mph27.6 mphOvercast
7:35 AM0.0 °F0.0 °F29.38 in10.0 miWest (270°)19.6 mph24.2 mphOvercast
7:55 AM0.0 °F0.0 °F29.41 in10.0 miWest (270°)19.6 mph34.5 mphMostly Cloudy
8:15 AM0.0 °F0.0 °F29.43 in10.0 miWest (270°)16.1 mph24.2 mphMostly Cloudy
8:35 AM0.0 °F0.0 °F29.46 in10.0 miWNW (290°)16.1 mph29.9 mphOvercast
8:55 AM0.0 °F0.0 °F29.48 in10.0 miWest (280°)21.9 mph31.1 mphPartly Cloudy
9:15 AM0.0 °F0.0 °F29.50 in10.0 miWNW (290°)17.3 mph26.5 mphClear
9:35 AM44.6 °F30.2 °F57 %29.52 in10.0 miWNW (300°)11.5 mph24.2 mphClear
9:55 AM44.6 °F30.2 °F57 %29.54 in10.0 miWNW (290°)12.7 mph20.7 mphClear
10:15 AM0.0 °F0.0 °F29.55 in10.0 miWNW (290°)15.0 mph23.0 mphClear
10:35 AM0.0 °F0.0 °F29.56 in10.0 miWest (280°)19.6 mph27.6 mphClear
10:55 AM0.0 °F0.0 °F29.58 in10.0 miWest (270°)17.3 mph27.6 mphClear
11:15 AM0.0 °F0.0 °F29.59 in10.0 miWest (280°)18.4 mph27.6 mphClear
11:35 AM0.0 °F0.0 °F29.59 in10.0 miWest (270°)17.3 mph26.5 mphClear
11:55 AM0.0 °F0.0 °F29.59 in10.0 miWest (270°)17.3 mph27.6 mphClear
12:15 PM0.0 °F0.0 °F29.59 in10.0 miWest (280°)20.7 mph28.8 mphClear
12:35 PM0.0 °F0.0 °F29.60 in10.0 miWest (260°)17.3 mph24.2 mphClear
12:55 PM0.0 °F0.0 °F29.61 in10.0 miWest (270°)17.3 mph23.0 mphPartly Cloudy
1:15 PM0.0 °F0.0 °F29.61 in10.0 miWest (280°)18.4 mph25.3 mphPartly Cloudy
1:35 PM0.0 °F0.0 °F29.61 in10.0 miWest (270°)17.3 mph28.8 mphClear
1:55 PM0.0 °F0.0 °F29.63 in10.0 miWest (280°)16.1 mph26.5 mphClear
2:15 PM44.6 °F24.8 °F46 %29.63 in10.0 miWest (280°)18.4 mph27.6 mphClear
2:35 PM44.6 °F24.8 °F46 %29.64 in10.0 miWest (280°)16.1 mph19.6 mphClear
2:55 PM0.0 °F0.0 °F29.64 in10.0 miWest (280°)17.3 mph28.8 mphPartly Cloudy
3:15 PM44.6 °F24.8 °F46 %29.66 in10.0 miWest (280°)13.8 mph23.0 mphScattered Clouds
3:35 PM0.0 °F0.0 °F29.67 in10.0 miWest (280°)17.3 mph28.8 mphScattered Clouds
3:55 PM0.0 °F0.0 °F29.68 in10.0 miWest (280°)20.7 mph29.9 mphClear
4:15 PM42.8 °F21.2 °F42 %29.70 in10.0 miWest (280°)16.1 mph29.9 mphClear
4:35 PM42.8 °F21.2 °F42 %29.71 in10.0 miWNW (290°)12.7 mph23.0 mphClear
4:55 PM42.8 °F19.4 °F39 %29.72 in10.0 miWest (280°)17.3 mph24.2 mphClear
5:15 PM39.2 °F21.2 °F49 %29.74 in10.0 miWNW (290°)13.8 mph24.2 mphClear
5:35 PM39.2 °F21.2 °F49 %29.76 in10.0 miWNW (290°)17.3 mph24.2 mphMostly Cloudy
5:55 PM39.2 °F17.6 °F42 %29.78 in10.0 miWest (280°)20.7 mph27.6 mphMostly Cloudy
6:15 PM37.4 °F19.4 °F48 %29.79 in10.0 miWest (280°)17.3 mph25.3 mphScattered Clouds
6:35 PM0.0 °F0.0 °F29.80 in10.0 miWest (280°)16.1 mph31.1 mphClear
6:55 PM37.4 °F17.6 °F45 %29.81 in10.0 miWest (280°)20.7 mph28.8 mphClear
7:15 PM0.0 °F0.0 °F29.82 in10.0 miWest (280°)18.4 mph28.8 mphClear
7:35 PM37.4 °F15.8 °F41 %29.83 in10.0 miWest (280°)17.3 mph26.5 mphClear
7:55 PM37.4 °F15.8 °F41 %29.83 in10.0 miWest (280°)19.6 mph29.9 mphClear
8:15 PM37.4 °F17.6 °F45 %29.84 in10.0 miWest (280°)19.6 mph29.9 mphClear
8:35 PM0.0 °F0.0 °F29.84 in10.0 miWest (280°)13.8 mph24.2 mphClear
8:55 PM35.6 °F17.6 °F48 %29.86 in10.0 miWest (280°)15.0 mph27.6 mphClear
9:15 PM0.0 °F0.0 °F29.87 in10.0 miWest (280°)21.9 mph29.9 mphClear
9:35 PM0.0 °F0.0 °F29.88 in10.0 miWest (280°)16.1 mph38.0 mphClear
9:55 PM0.0 °F0.0 °F29.89 in10.0 miWest (280°)20.7 mph28.8 mphClear
10:15 PM0.0 °F0.0 °F29.89 in10.0 miWest (280°)19.6 mph29.9 mphClear
10:35 PM33.8 °F14.0 °F44 %29.91 in10.0 miWNW (290°)13.8 mph24.2 mphClear
10:55 PM33.8 °F12.2 °F41 %29.91 in10.0 miWNW (300°)13.8 mph25.3 mphClear
11:15 PM33.8 °F10.4 °F38 %29.91 in10.0 miWNW (300°)15.0 mph23.0 mphClear
11:35 PM33.8 °F10.4 °F38 %29.91 in10.0 miWNW (300°)12.7 mph26.5 mphClear
11:55 PM33.8 °F10.4 °F38 %29.92 in10.0 miWNW (300°)13.8 mph25.3 mphClear
Hourly data recorded from KWWD, located miles away from Cape May, New Jersey







STORIES FROM OUR PARTNERS